Weather in Trenton

United States     40°13′19″N   74°45′52″W
temp.,
°C
wind,
m/s
gust,
m/s
humid.,
%
clouds,
%
prec.,
mm/h
press.,
hPa
HPBL,
m
17 may, mon
mon1723:00+13nw118572 0.3 102510
02:00+11nw22894 0.3 102545
05:00+10n22890 0.0 102525
08:00+14nnw11740 0.0 1026177
11:00+21s11479 0.0 10261175
14:00+23s233491 0.0 10242619
17:00+20nnw135399 0.1 1025755
20:00+18sw2652100 0.1 1026393
18 may, tue
tue1823:00+15ssw255598 0.0 1026120
02:00+13sw256399 0.0 1026112
05:00+12sw247497 0.0 102691
08:00+16wsw24655 0.0 1028319
11:00+21wsw34460 0.0 10271164
14:00+24wnw343937 0.0 10252496
17:00+24wnw343945 0.0 10241544
20:00+20wnw23622 0.0 102452
19 may, wed
wed1923:00+18w266428 0.0 1025158
02:00+15w24760 0.0 1025106
05:00+14wnw12825 0.0 102623
08:00+18nw23661 0.0 1027212
11:00+24nnw23450 0.0 10271144
14:00+27nnw23380 0.0 10261999
17:00+28wnw23370 0.0 10251974
20:00+22wnw25590 0.0 1025101
20 may, thu
thu2023:00+20wsw11670 0.0 102611
02:00+18wnw24745 0.0 102682
05:00+17wnw2377100 0.0 102761
08:00+20nw2367100 0.0 1029152
11:00+25nne2254100 0.0 1029657
14:00+28ene0144100 0.0 10281416
17:00+28ene3245100 0.0 10271477
20:00+21ese3565100 0.0 1028225
21 may, fri
fri2123:00+18ese2474100 0.0 1029154
02:00+17ese358797 0.2 1028149
05:00+17ene1287100 0.0 102980
08:00+17e2386100 0.0 1030163
11:00+16ese2396100 1.4 1030152
14:00+17sse1292100 1.6 1028177
17:00+19sse2386100 0.0 1027356
20:00+17sse2392100 0.4 102695